Weather reports worldwide

Advertisment
Pershore, United Kingdom (3529): temperature & dewpoint: 18.06.2018 14:00:00 - 24.06.2018 14:00:00 (BST)Pershore, United Kingdom (3529): temperature -20cm & temperature -100cm: 18.06.2018 14:00:00 - 24.06.2018 14:00:00 (BST)Pershore, United Kingdom (3529): wind speed: 18.06.2018 14:00:00 - 24.06.2018 14:00:00 (BST)Pershore, United Kingdom (3529): wind direction: 18.06.2018 14:00:00 - 24.06.2018 14:00:00 (BST)Pershore, United Kingdom (3529): reduced air pressure: 18.06.2018 14:00:00 - 24.06.2018 14:00:00 (BST)Pershore, United Kingdom (3529): visibility: 18.06.2018 14:00:00 - 24.06.2018 14:00:00 (BST)Pershore, United Kingdom (3529): precipitation: 18.06.2018 14:00:00 - 24.06.2018 14:00:00 (BST)
Date & Time tt [°C] td [°C] tt -20cm [°C] tt -100cm [°C] ff [km/h] ff [kn] dd ppp [hPa] vv [km] rr [mm]
24.06.2018 14:00:00 23,1 8,4 - - 5 3 NW 1026,1 30 0,0
24.06.2018 13:00:00 21,4 7,4 - - 4 2 NNW 1026,3 25 0,0
24.06.2018 12:00:00 20,5 7,5 - - 4 2 N 1026,7 35 0,0
24.06.2018 11:00:00 19,1 9,1 - - 4 2 SSE 1026,9 35 0,0
24.06.2018 10:00:00 16,9 8,6 18,4 15,5 5 3 NE 1027,0 40 0,0
24.06.2018 09:00:00 16,0 10,2 - - 5 3 N 1027,1 30 0,0
24.06.2018 08:00:00 14,5 10,1 - - 4 2 NNW 1027,2 22 0,0
24.06.2018 07:00:00 11,8 9,2 - - 5 3 NNW 1027,0 26 0,0
24.06.2018 06:00:00 7,7 6,6 - - 2 1 NNE 1027,0 22 0,0
24.06.2018 05:00:00 8,0 6,5 - - 4 2 N 1026,9 27 0,0
24.06.2018 04:00:00 8,2 6,5 - - 4 2 WNW 1026,8 30 0,0
24.06.2018 03:00:00 9,5 6,9 - - 4 2 NNW 1027,0 50 0,0
24.06.2018 02:00:00 10,6 7,3 - - 2 1 ENE 1027,1 35 0,0
24.06.2018 01:00:00 12,3 7,2 - - 5 3 N 1027,3 50 0,0
24.06.2018 00:00:00 13,7 8,4 - - 4 2 NNW 1027,5 45 0,0
23.06.2018 23:00:00 16,3 9,1 - - 4 2 N 1027,4 45 0,0
23.06.2018 22:00:00 17,7 9,8 - - 5 3 NNW 1027,1 45 0,0
23.06.2018 21:00:00 19,9 10,3 - - 9 5 NNW 1026,5 40 0,0
23.06.2018 20:00:00 21,5 10,8 - - 9 5 N 1026,3 35 0,0
23.06.2018 19:00:00 22,9 10,8 - - 4 2 NW 1026,1 30 0,0
23.06.2018 18:00:00 21,8 10,1 - - 4 2 NNE 1026,5 35 0,0
23.06.2018 17:00:00 22,4 11,2 - - 4 2 NNE 1027,1 29 0,0
23.06.2018 16:00:00 22,4 10,0 - - 9 5 NNW 1027,8 30 0,0
23.06.2018 15:00:00 23,4 10,4 - - 9 5 NW 1028,2 24 0,0
23.06.2018 14:00:00 21,8 10,5 - - 8 4 NNW 1028,9 35 0,0
23.06.2018 13:00:00 21,2 8,6 - - 9 5 NNW 1029,5 29 0,0
23.06.2018 12:00:00 20,1 9,7 - - 8 4 NNW 1029,9 45 0,0
23.06.2018 11:00:00 18,4 8,0 - - 8 4 NNW 1030,3 35 0,0
23.06.2018 10:00:00 17,1 7,8 17,9 15,5 5 3 NNW 1030,4 35 0,0
23.06.2018 09:00:00 14,5 6,4 - - 5 3 W 1030,7 35 0,0
23.06.2018 08:00:00 11,6 7,5 - - 4 2 WSW 1030,8 30 0,0
23.06.2018 07:00:00 10,7 6,7 - - 2 1 WSW 1030,8 35 0,0
23.06.2018 06:00:00 8,1 5,7 - - 2 1 WSW 1030,7 35 0,0
23.06.2018 05:00:00 6,0 4,1 - - 2 1 S 1031,0 35 0,0
23.06.2018 04:00:00 6,4 3,7 - - 2 1 W 1031,3 35 0,0
23.06.2018 03:00:00 7,1 4,6 - - 2 1 W 1031,3 35 0,0
23.06.2018 02:00:00 8,2 4,9 - - 2 1 WNW 1031,3 30 0,0
23.06.2018 01:00:00 9,9 4,8 - - 4 2 NW 1031,3 45 0,0
23.06.2018 00:00:00 10,9 5,4 - - 5 3 NNW 1031,0 45 0,0
22.06.2018 23:00:00 12,9 6,4 - - 5 3 NNW 1031,0 40 0,0
22.06.2018 22:00:00 14,6 5,6 - - 5 3 NNW 1030,8 45 0,0
22.06.2018 21:00:00 18,3 6,6 - - 11 6 NNW 1030,4 45 0,0
22.06.2018 20:00:00 21,2 6,8 - - 8 4 NNW 1030,2 45 0,0
22.06.2018 19:00:00 21,9 6,5 - - 8 4 NW 1030,1 50 0,0
22.06.2018 18:00:00 21,9 7,7 - - 8 4 NNW 1030,5 27 0,0
22.06.2018 17:00:00 21,8 8,3 - - 8 4 N 1030,7 28 0,0
22.06.2018 16:00:00 21,0 7,5 - - 8 4 WNW 1030,9 30 0,0
22.06.2018 15:00:00 20,0 7,6 - - 8 4 WNW 1031,4 22 0,0
22.06.2018 14:00:00 19,3 9,1 - - 9 5 N 1031,7 27 0,0
22.06.2018 13:00:00 18,4 7,4 - - 9 5 NNW 1032,1 22 0,0
22.06.2018 12:00:00 17,6 7,6 - - 9 5 N 1032,5 27 0,0
22.06.2018 11:00:00 16,9 8,8 - - 9 5 N 1032,5 30 0,0
22.06.2018 10:00:00 15,8 8,4 17,2 15,5 9 5 N 1032,5 24 0,0
22.06.2018 09:00:00 14,3 9,1 - - 9 5 NNW 1032,8 24 0,0
22.06.2018 08:00:00 13,1 9,0 - - 5 3 NW 1032,8 16 0,0
22.06.2018 07:00:00 9,5 7,6 - - 5 3 SW 1032,4 19 0,0
22.06.2018 06:00:00 7,2 6,7 - - 5 3 S 1032,1 17 0,0
22.06.2018 05:00:00 5,2 4,1 - - 2 1 SSW 1031,9 20 0,0
22.06.2018 04:00:00 5,7 4,3 - - 2 1 W 1031,9 20 0,0
22.06.2018 03:00:00 6,6 4,7 - - 4 2 NW 1031,6 22 0,0
22.06.2018 02:00:00 7,0 4,5 - - 4 2 SW 1031,6 30 0,0
22.06.2018 01:00:00 7,5 4,1 - - 5 3 WNW 1031,8 35 0,0
22.06.2018 00:00:00 8,4 4,4 - - 8 4 W 1031,8 35 0,0
21.06.2018 23:00:00 9,6 4,5 - - 4 2 W 1031,8 40 0,0
21.06.2018 22:00:00 11,8 4,1 - - 9 5 NW 1031,1 45 0,0
21.06.2018 21:00:00 13,9 4,1 - - 11 6 NNW 1030,6 45 0,0
21.06.2018 20:00:00 16,0 4,0 - - 13 7 NNW 1030,3 40 0,0
21.06.2018 19:00:00 16,7 4,4 - - 16 9 NNW 1029,9 35 0,0
21.06.2018 18:00:00 18,4 4,4 - - 15 8 NNW 1029,5 45 0,0
21.06.2018 17:00:00 18,8 4,7 - - 15 8 NNW 1029,1 25 0,0
21.06.2018 16:00:00 19,8 4,8 - - 16 9 NW 1028,8 50 0,0
21.06.2018 15:00:00 20,7 6,1 - - 18 10 NW 1028,3 45 0,0
21.06.2018 14:00:00 18,2 5,8 - - 16 9 NNW 1028,1 30 0,0
21.06.2018 13:00:00 18,2 6,3 - - 16 9 NW 1027,8 27 0,0
21.06.2018 12:00:00 17,9 6,5 - - 18 10 NW 1027,5 35 0,0
21.06.2018 11:00:00 17,0 6,4 - - 21 11 NW 1027,3 40 0,0
21.06.2018 10:00:00 15,9 6,0 17,5 15,4 21 11 NNW 1026,8 30 0,0
21.06.2018 09:00:00 13,8 5,8 - - 18 10 NNW 1026,3 28 0,0
21.06.2018 08:00:00 12,9 6,1 - - 15 8 NW 1026,1 23 0,0
21.06.2018 07:00:00 11,3 6,0 - - 13 7 WNW 1025,3 30 0,0
21.06.2018 06:00:00 10,2 6,3 - - 15 8 NW 1025,1 35 0,0
21.06.2018 05:00:00 8,6 5,8 - - 8 4 WNW 1024,4 45 0,0
21.06.2018 04:00:00 9,1 6,5 - - 8 4 W 1024,0 40 0,0
21.06.2018 03:00:00 8,7 6,6 - - 5 3 W 1023,9 28 0,0
21.06.2018 02:00:00 8,3 6,2 - - 5 3 W 1023,5 27 0,0
21.06.2018 01:00:00 8,4 6,6 - - 4 2 WNW 1023,3 30 0,0
21.06.2018 00:00:00 9,2 6,0 - - 2 1 NW 1022,9 35 0,0
20.06.2018 23:00:00 11,4 6,3 - - 9 5 NW 1022,5 50 0,0
20.06.2018 22:00:00 12,6 6,2 - - 11 6 NW 1022,2 40 0,0
20.06.2018 21:00:00 14,1 6,6 - - 11 6 NNW 1021,2 40 0,0
20.06.2018 20:00:00 15,5 8,1 - - 16 9 NNW 1020,8 30 0,0
20.06.2018 19:00:00 16,5 10,4 - - 13 7 NNW 1020,2 45 0,0
20.06.2018 18:00:00 18,4 12,3 - - 13 7 NNW 1019,6 40 0,0
20.06.2018 17:00:00 21,1 14,2 - - 21 11 WNW 1019,1 35 0,0
20.06.2018 16:00:00 21,1 14,5 - - 21 11 W 1018,9 50 0,0
20.06.2018 15:00:00 20,8 15,2 - - 16 9 SW 1018,9 40 0,0
20.06.2018 14:00:00 20,4 15,4 - - 15 8 W 1019,0 35 0,0
20.06.2018 13:00:00 19,9 15,3 - - 21 11 SW 1019,2 40 0,0
20.06.2018 12:00:00 19,2 16,1 - - 18 10 S 1019,4 30 0,0
20.06.2018 11:00:00 19,6 15,4 - - 24 13 SSW 1019,3 35 0,0
20.06.2018 10:00:00 19,7 15,7 18,0 15,4 24 13 SSW 1019,4 40 0,0
20.06.2018 09:00:00 18,7 15,4 - - 21 11 SW 1019,4 45 0,0
20.06.2018 08:00:00 17,4 14,8 - - 15 8 SSW 1019,5 29 0,0
20.06.2018 07:00:00 17,1 14,4 - - 15 8 SSW 1019,7 35 0,0
20.06.2018 06:00:00 16,8 14,0 - - 16 9 SSW 1019,7 35 0,0
20.06.2018 05:00:00 16,3 13,8 - - 13 7 SSW 1020,2 50 0,0
20.06.2018 04:00:00 15,5 14,2 - - 16 9 SSW 1020,2 29 0,0
20.06.2018 03:00:00 15,8 14,0 - - 11 6 SSW 1020,6 30 0,0
20.06.2018 02:00:00 17,2 14,6 - - 18 10 SSW 1021,0 30 0,0
20.06.2018 01:00:00 16,7 15,0 - - 13 7 SSW 1021,5 29 0,0
20.06.2018 00:00:00 16,4 15,0 - - 13 7 S 1021,8 18 0,0
19.06.2018 23:00:00 17,2 15,0 - - 11 6 SW 1022,0 27 0,0
19.06.2018 22:00:00 18,5 15,2 - - 15 8 SW 1022,1 40 0,0
19.06.2018 21:00:00 19,6 15,5 - - 15 8 SW 1021,8 40 0,0
19.06.2018 20:00:00 20,6 15,6 - - 16 9 SW 1021,8 24 0,0
19.06.2018 19:00:00 21,2 15,8 - - 21 11 SW 1021,8 40 0,0
19.06.2018 18:00:00 21,8 16,0 - - 18 10 SW 1021,7 45 0,0
19.06.2018 17:00:00 22,0 16,3 - - 18 10 SW 1021,8 40 0,0
19.06.2018 16:00:00 22,5 16,3 - - 24 13 SSW 1021,7 50 0,0
19.06.2018 15:00:00 22,2 16,7 - - 22 12 SW 1022,2 28 0,0
19.06.2018 14:00:00 22,5 16,5 - - 21 11 SW 1022,2 35 0,0
19.06.2018 13:00:00 20,7 15,7 - - 18 10 SSW 1022,5 35 0,0
19.06.2018 12:00:00 21,0 14,9 - - 16 9 SW 1022,5 30 0,0
19.06.2018 11:00:00 20,7 15,6 - - 13 7 SSW 1022,6 28 0,0
19.06.2018 10:00:00 19,0 14,9 17,5 15,4 15 8 SW 1023,0 30 0,0
19.06.2018 09:00:00 18,0 14,6 - - 15 8 SW 1023,0 27 0,0
19.06.2018 08:00:00 17,1 14,9 - - 11 6 SW 1022,8 35 0,0
19.06.2018 07:00:00 16,4 14,4 - - 11 6 SSW 1022,4 27 0,0
19.06.2018 06:00:00 16,4 13,8 - - 11 6 SSW 1022,0 40 0,0
19.06.2018 05:00:00 16,3 13,6 - - 8 4 WSW 1021,6 50 0,0
19.06.2018 04:00:00 16,6 13,7 - - 9 5 W 1021,2 40 0,0
19.06.2018 03:00:00 16,5 13,7 - - 5 3 WSW 1020,9 50 0,0
19.06.2018 02:00:00 16,9 13,6 - - 15 8 SSW 1020,8 50 0,0
19.06.2018 01:00:00 17,0 13,8 - - 15 8 SW 1020,3 50 0,0
19.06.2018 00:00:00 17,4 14,0 - - 15 8 SSW 1019,9 50 0,0
18.06.2018 23:00:00 17,7 14,4 - - 18 10 SSW 1019,9 45 0,0
18.06.2018 22:00:00 17,8 14,7 - - 15 8 SW 1019,5 45 0,0
18.06.2018 21:00:00 18,2 14,9 - - 18 10 SSW 1018,9 40 0,0
18.06.2018 20:00:00 19,0 15,1 - - 18 10 SSW 1018,6 45 0,0
18.06.2018 19:00:00 19,1 15,1 - - 18 10 SSW 1018,5 28 0,0
18.06.2018 18:00:00 19,4 15,0 - - 21 11 SSW 1018,4 45 0,0
18.06.2018 17:00:00 19,7 14,7 - - 22 12 SSW 1018,6 30 0,0
18.06.2018 16:00:00 20,3 14,2 - - 18 10 SW 1018,6 20 0,0
18.06.2018 15:00:00 19,8 13,6 - - 15 8 WSW 1019,1 27 0,0
18.06.2018 14:00:00 19,7 12,7 - - 21 11 SW 1018,9 27 0,0

tt = temperature
td = dewpoint
tt -20cm = temperature -20cm
tt -100cm = temperature -100cm
ff = wind speed
dd = wind direction
ppp = reduced air pressure
vv = visibility
rr = precipitation

Next stations